Temperature
16 16 15 15 15 15 15 15 15 15 15 15 15 15 14 14 14 14 14 14 14 14 14 14 14 14 14 14 14 14 15 15 15 15 15 15 15 15 15 15 15 15 15
16 16 15 15 15 15 15 15 15 15 15 15 14 14 14 14 14 14 14 14 14 14 14 14 14 14 14 14 14 14 14 14 14 14 14 14 14 15 15 15 15 15 15
15 15 15 15 15 15 15 15 15 15 15 14 14 14 14 14 14 14 14 14 13 13 13 13 13 13 13 13 13 13 13 14 14 14 14 14 14 14 14 14 14 14 14
15 15 15 15 15 15 15 14 14 14 14 14 14 14 13 13 13 13 13 13 13 13 13 13 13 13 13 13 13 13 13 13 13 13 14 14 14 14 14 14 14 14 14
15 15 14 14 14 14 14 14 14 14 14 14 14 13 13 13 13 13 13 13 13 13 13 12 12 12 12 12 12 13 13 13 13 13 13 13 13 14 14 14 14 14 14
14 14 14 14 14 14 14 14 14 14 14 14 13 13 13 13 13 13 12 12 12 12 12 12 12 12 12 12 12 12 12 12 12 13 13 13 13 13 13 13 13 13 13
14 14 14 14 14 14 14 13 13 13 13 13 13 13 13 13 13 13 12 12 12 12 12 12 12 12 12 12 12 12 12 12 12 12 12 12 12 13 13 13 13 13 13
14 14 14 14 13 13 13 13 13 13 13 13 13 13 12 12 12 12 12 12 12 12 12 11 11 11 11 12 12 12 12 12 12 12 12 12 12 12 12 12 12 12 12
13 13 13 13 13 13 13 13 12 12 12 12 12 12 12 12 12 12 12 12 11 11 11 11 11 11 11 11 11 11 11 11 11 11 11 11 12 12 12 12 12 12 12
13 13 13 13 13 12 12 12 12 12 12 12 12 12 12 12 12 11 11 11 11 11 11 11 11 11 11 11 11 11 11 11 11 11 11 11 11 11 11 11 11 11 12
12 12 12 12 12 12 12 12 12 12 11 11 11 12 12 12 12 11 11 11 11 11 11 10 10 10 10 10 10 10 11 11 10 10 10 10 11 11 11 11 11 11 11
12 12 12 12 12 12 12 12 11 11 11 11 11 11 11 11 11 11 11 11 10 10 10 10 10 10 10 10 10 10 10 10 10 10 10 10 10 10 10 10 10 11 11
12 12 12 12 12 11 11 11 11 11 11 11 11 11 11 11 11 11 11 10 10 10 10 10 10 10 10 10 10 10 10 10 10 10 10 10 10 10 10 10 10 10 10
12 12 11 12 11 11 11 11 11 11 11 10 10 10 10 10 10 10 10 10 10 10 9 9 9 9 9 9 9 9 9 9 9 9 10 10 10 10 10 10 10 10 10
11 11 11 11 11 11 11 11 11 10 10 10 10 10 10 10 10 10 10 10 10 9 9 9 9 9 9 9 9 9 9 9 9 9 9 9 9 9 10 10 10 10 10
11 11 11 11 11 11 11 11 10 10 10 10 10 10 10 10 10 10 10 10 10 10 9 9 9 9 9 8 8 8 8 8 9 9 9 9 9 9 9 9 9 9 9
11 11 10 10 10 10 10 10 10 10 10 10 10 10 10 9 9 9 9 9 9 9 9 9 9 8 8 8 8 8 8 8 8 8 8 9 9 9 9 9 9 9 9
10 10 10 10 10 10 10 10 10 10 10 10 9 9 9 9 9 9 9 9 9 9 9 8 8 8 8 8 8 8 8 8 8 8 8 8 8 8 8 8 8 8 8
10 10 10 10 10 10 10 10 10 10 10 9 9 9 9 9 9 9 9 9 9 8 8 8 8 8 8 8 8 7 7 7 7 7 8 8 8 8 8 8 8 8 8
10 10 9 9 9 9 10 10 9 9 9 9 9 9 9 9 9 9 9 9 8 8 8 8 8 8 7 7 7 7 7 7 7 7 7 8 8 8 8 8 8 8 8
9 9 9 9 9 9 9 9 9 9 9 9 9 9 9 9 9 9 9 8 8 8 8 8 7 7 7 7 7 7 7 7 7 7 7 7 7 7 7 8 8 8 8
9 9 9 9 9 9 9 9 9 9 9 9 9 8 8 8 8 8 8 8 8 8 8 7 7 7 7 7 7 7 7 7 6 7 7 7 7 7 7 7 7 7 7
8 8 8 8 8 8 8 8 8 8 8 8 8 8 8 8 8 8 8 8 8 8 7 7 7 7 7 7 7 7 7 6 6 7 6 7 7 7 7 7 7 7 7
8 8 8 8 8 8 8 8 8 8 8 8 8 8 8 8 8 8 8 8 7 7 7 7 7 7 7 7 7 7 6 6 6 6 6 6 6 7 7 7 7 7 7
8 8 7 7 7 7 7 8 7 7 7 8 8 8 7 7 7 7 7 7 7 7 7 7 6 6 6 6 6 6 6 6 6 6 6 6 6 6 7 7 7 7 7
7 7 7 7 7 7 7 7 7 7 7 7 7 7 7 7 7 7 7 7 7 7 7 6 6 6 6 6 6 6 6 6 6 5 6 6 6 6 6 6 6 6 6
Wind_Speed
2 3 4 4 4 4 3 3 4 5 5 6 6 6 6 7 8 8 8 10 11 11 11 11 11 10 10 10 10 10 11 12 12 11 10 10 10 10 10 9 9 9 9
4 3 4 4 4 4 4 4 4 4 4 4 5 6 6 6 7 7 8 9 10 10 11 11 11 10 10 10 10 10 11 11 11 11 10 10 10 10 10 10 10 9 9
6 5 4 3 4 6 6 5 5 4 4 5 5 5 5 6 6 7 8 8 8 9 10 10 10 10 10 10 10 10 10 11 11 10 10 8 9 9 9 9 9 9 9
7 5 3 3 5 5 4 3 3 4 4 5 4 4 4 5 6 7 9 9 9 8 8 9 9 10 10 10 10 10 11 11 11 10 9 8 8 8 8 8 8 8 8
8 6 4 4 5 4 3 4 4 3 3 3 3 3 4 4 5 7 7 8 9 9 8 8 9 10 10 10 9 10 11 11 11 10 10 8 7 7 8 8 8 7 7
8 6 4 5 5 3 3 3 3 3 3 2 3 4 3 4 5 5 5 7 8 9 9 8 7 8 10 9 9 10 10 9 10 9 9 8 6 6 7 8 8 7 7
6 4 3 4 4 3 3 4 3 3 3 2 2 2 3 4 5 4 4 4 5 7 8 8 8 8 8 10 10 10 9 9 8 8 8 7 6 6 6 7 7 7 7
5 4 3 3 3 2 3 3 3 2 1 2 2 1 1 2 3 3 3 3 4 6 7 8 9 9 9 8 9 10 9 9 8 8 7 6 6 6 6 6 7 7 7
5 5 4 4 3 2 2 2 2 2 1 2 2 2 1 0 1 2 2 3 4 4 4 6 9 9 9 9 8 10 9 8 8 8 7 6 6 6 6 6 6 6 6
4 4 3 3 2 3 2 1 2 1 2 1 2 2 1 1 1 1 2 3 4 4 4 5 6 7 9 8 9 11 10 9 8 8 8 7 7 6 6 6 5 6 6
4 3 3 3 2 2 2 2 2 2 2 1 1 1 2 2 2 1 0 1 2 3 3 3 5 6 7 8 8 10 10 9 9 9 8 8 8 8 7 6 5 5 5
2 3 3 3 3 2 2 2 2 2 2 2 2 2 2 1 1 1 1 0 1 1 2 3 3 4 6 7 7 9 10 10 9 9 9 8 8 8 8 7 6 4 4
1 1 3 2 3 3 3 2 2 2 2 2 1 1 2 2 1 1 2 1 1 1 1 2 2 3 5 6 6 8 8 9 9 9 9 9 9 8 7 7 6 5 4
1 1 3 3 3 3 3 2 1 1 2 2 2 2 1 2 2 2 1 2 1 1 1 1 1 3 4 4 4 5 6 7 7 8 8 8 8 8 7 6 6 5 5
2 3 3 2 2 2 2 2 1 1 1 1 2 2 1 1 1 2 2 1 1 0 1 1 1 1 3 3 3 4 4 5 6 6 6 7 7 7 7 6 6 5 5
2 2 2 2 2 2 2 2 1 1 1 0 0 1 1 1 1 1 1 1 1 1 0 1 1 0 1 2 3 3 3 3 3 4 4 5 6 6 5 5 5 5 4
2 1 1 1 1 1 1 1 1 1 1 0 0 0 0 1 1 1 1 1 2 1 0 1 1 0 1 1 1 1 1 2 1 2 3 3 3 4 5 4 3 3 3
1 1 1 1 0 1 1 0 0 0 0 0 1 0 0 1 1 1 1 1 1 0 1 1 1 0 0 1 1 1 0 1 1 0 1 2 3 3 3 3 3 2 2
1 1 1 1 0 0 1 1 1 1 0 0 1 0 1 1 1 0 0 0 1 1 1 1 1 1 1 1 0 1 1 1 1 2 2 2 3 3 3 3 2 1 0
1 1 1 1 1 0 0 1 1 1 1 0 0 1 0 1 1 0 1 1 1 0 0 1 1 1 1 1 0 1 2 2 2 1 1 2 4 4 4 4 3 3 2
1 1 1 1 1 1 1 1 2 2 1 1 1 1 0 1 0 0 0 1 1 1 1 1 1 1 1 1 2 2 2 2 3 1 1 2 2 3 3 4 5 5 4
1 1 2 1 1 1 1 2 2 2 2 2 2 2 2 1 0 0 1 1 1 1 1 2 2 2 3 2 2 2 2 2 3 2 1 3 2 2 4 4 5 6 7
2 2 2 2 2 2 3 3 4 3 3 3 2 2 2 2 1 2 2 3 2 3 3 3 3 3 3 3 2 3 3 3 4 3 2 4 3 3 4 5 6 7 7
2 2 2 2 2 3 4 5 5 3 3 3 2 2 1 2 2 1 1 2 2 3 4 3 3 4 3 3 4 4 4 4 4 2 1 3 3 3 3 5 8 8 8
2 3 3 2 2 3 5 5 4 3 3 4 3 2 2 3 4 2 2 3 3 3 4 5 5 5 5 5 4 2 2 2 4 4 2 2 3 3 3 3 7 9 9
2 3 3 3 3 3 4 5 4 2 3 3 3 3 3 3 3 3 3 3 4 4 3 3 4 5 5 6 7 4 4 3 3 3 3 2 2 1 2 2 2 5 6
Wind_Direction
33 41 50 45 43 42 34 28 47 48 45 39 53 62 65 67 76 85 79 79 77 72 70 67 66 67 65 65 64 62 63 63 62 63 64 67 67 63 61 58 57 58 58
43 45 54 36 29 31 34 46 57 56 57 50 43 48 58 71 76 84 88 81 81 78 72 68 63 60 62 61 60 61 64 63 62 62 62 62 64 63 61 58 55 54 54
44 46 45 44 29 29 35 42 50 48 57 57 46 44 44 46 67 80 83 81 78 78 74 70 64 61 63 62 60 60 62 61 58 59 59 63 64 64 64 60 56 52 52
55 48 40 43 39 34 32 41 50 53 48 49 41 35 45 39 49 71 80 78 72 70 71 71 66 61 60 59 59 59 59 60 58 56 57 60 62 64 65 64 59 54 52
50 54 34 41 47 38 29 39 42 56 59 55 56 48 48 46 39 60 68 72 72 70 69 69 68 62 58 56 57 59 56 55 54 53 52 55 60 60 62 63 59 56 53
41 51 40 45 46 46 31 43 52 49 59 58 58 56 57 62 55 54 59 67 68 69 68 68 68 62 56 53 55 55 50 49 50 48 45 48 56 59 64 62 57 55 53
37 47 45 49 51 54 36 43 50 53 44 49 71 49 30 50 64 58 57 63 68 67 67 65 64 66 59 52 51 52 48 45 46 45 44 49 57 58 62 62 57 56 54
31 34 50 62 70 67 46 47 55 40 30 32 53 76 43 15 22 52 69 68 72 66 63 64 61 59 60 54 47 48 44 45 47 45 46 54 63 59 61 60 58 57 58
37 32 43 63 66 80 83 58 67 58 27 1 45 62 77 94 332 20 55 68 75 66 61 64 65 58 57 56 49 43 44 44 45 44 45 56 61 59 57 62 61 55 58
51 45 38 56 70 70 80 51 69 57 54 3 351 17 38 89 107 32 17 47 71 72 67 64 62 59 60 59 50 42 46 45 44 45 46 51 57 57 53 55 58 53 52
44 47 39 42 62 78 89 59 50 46 61 46 14 0 16 17 27 96 72 8 31 56 69 75 77 66 67 64 55 46 47 48 46 46 45 47 48 50 47 45 46 45 44
28 37 51 40 48 60 64 60 63 52 42 43 27 31 54 42 338 44 93 116 56 26 43 74 79 76 79 71 58 53 53 53 50 46 42 40 39 39 36 34 32 33 38
31 6 42 49 50 53 55 51 44 47 41 48 48 35 39 30 11 43 88 82 46 346 46 59 80 83 81 78 65 55 56 52 49 45 42 36 32 29 26 24 25 33 36
43 43 55 54 54 55 52 54 53 38 43 31 34 53 48 21 27 50 84 91 52 359 38 11 42 78 82 86 67 58 60 54 47 41 36 32 27 25 23 21 25 27 36
59 58 61 54 47 59 62 70 68 51 52 30 14 25 40 49 36 40 67 116 142 213 323 331 28 31 88 95 67 69 69 63 48 36 32 29 26 25 27 31 30 32 36
64 69 65 45 34 42 56 75 73 55 74 84 85 36 13 27 50 45 42 19 39 124 273 328 346 24 62 73 67 76 84 64 42 29 29 26 26 23 20 24 28 35 37
94 101 95 59 22 20 31 89 91 70 51 354 62 104 1 36 54 40 35 36 29 72 98 330 350 55 50 73 66 64 140 114 77 15 10 14 14 13 13 14 19 31 41
113 112 118 135 11 346 2 68 119 38 92 325 315 343 337 63 61 40 31 30 5 99 141 247 299 312 280 190 163 251 257 169 165 254 319 334 334 337 349 354 355 10 33
147 137 159 153 167 325 345 308 228 212 143 320 318 291 229 116 127 159 120 32 327 330 127 187 256 279 288 276 305 301 295 253 251 222 244 287 305 304 317 322 322 299 308
160 212 201 183 205 203 256 300 335 355 66 79 4 321 326 122 156 206 230 229 240 237 220 177 214 256 268 277 300 278 302 294 288 260 248 260 270 284 291 290 282 260 239
242 244 238 222 235 223 254 359 340 330 309 257 244 236 123 63 111 160 261 283 304 236 225 210 225 252 250 275 269 264 283 293 288 272 282 261 244 248 263 270 264 256 242
256 248 241 233 249 263 276 299 307 287 280 258 246 227 203 190 358 358 307 294 299 264 253 231 240 240 247 246 269 279 281 291 288 272 262 269 227 246 231 228 244 246 244
253 269 259 233 224 224 241 264 280 282 278 269 250 240 252 228 177 213 266 280 283 288 271 240 245 249 244 241 242 262 269 269 265 250 257 268 250 251 237 225 230 236 236
252 257 262 258 246 244 249 256 272 272 278 273 250 232 223 211 228 212 249 276 270 271 263 255 237 244 246 241 232 237 246 267 280 270 220 260 264 261 255 217 224 226 227
265 259 252 249 241 249 253 250 254 260 268 277 261 236 231 213 215 221 241 268 279 280 278 274 280 280 273 267 261 251 255 265 276 269 243 241 260 274 260 242 221 222 222
276 273 266 260 246 237 247 245 242 243 256 271 275 253 242 237 218 219 220 241 260 268 279 290 285 280 270 264 263 234 223 237 255 261 241 228 256 277 287 260 214 205 219
Height
1523 1523 1523 1523 1522 1522 1522 1522 1521 1521 1520 1520 1520 1519 1518 1518 1517 1516 1515 1515 1515 1516 1516 1516 1517 1517 1517 1517 1518 1518 1518 1518 1517 1517 1517 1518 1517 1517 1517 1517 1517 1518 1517
1524 1523 1523 1523 1523 1522 1522 1522 1522 1521 1521 1520 1520 1519 1519 1518 1516 1516 1515 1515 1515 1516 1516 1516 1517 1517 1517 1518 1518 1518 1518 1518 1517 1517 1518 1518 1518 1518 1517 1517 1517 1518 1518
1523 1523 1522 1522 1522 1522 1522 1522 1522 1521 1521 1520 1520 1519 1518 1517 1516 1515 1515 1515 1515 1516 1516 1517 1517 1517 1517 1518 1518 1518 1518 1518 1518 1517 1518 1518 1518 1518 1518 1518 1518 1518 1518
1524 1523 1523 1523 1522 1522 1522 1522 1521 1521 1521 1520 1520 1519 1518 1517 1517 1515 1515 1515 1515 1516 1516 1517 1517 1517 1517 1518 1518 1518 1518 1518 1518 1517 1517 1518 1518 1518 1518 1518 1518 1518 1518
1524 1523 1523 1523 1522 1522 1522 1522 1521 1521 1520 1520 1520 1520 1519 1518 1518 1517 1516 1516 1516 1516 1516 1517 1517 1517 1517 1518 1518 1518 1518 1518 1518 1517 1517 1517 1517 1518 1518 1518 1518 1518 1518
1523 1523 1523 1523 1522 1522 1522 1522 1521 1521 1521 1521 1520 1520 1520 1519 1519 1518 1518 1518 1517 1517 1517 1517 1517 1517 1518 1518 1518 1518 1517 1517 1517 1516 1516 1516 1517 1517 1517 1517 1517 1518 1518
1523 1522 1522 1522 1522 1522 1522 1521 1521 1521 1521 1521 1520 1520 1521 1520 1520 1519 1519 1519 1519 1518 1518 1518 1517 1518 1518 1517 1517 1517 1517 1517 1516 1516 1516 1516 1516 1517 1517 1517 1517 1517 1517
1523 1522 1522 1522 1521 1521 1521 1521 1521 1520 1520 1521 1521 1520 1521 1522 1521 1520 1520 1519 1520 1519 1519 1519 1518 1518 1518 1517 1517 1517 1517 1517 1516 1515 1515 1515 1516 1516 1516 1516 1517 1517 1517
1522 1522 1521 1521 1521 1521 1520 1520 1520 1520 1520 1521 1521 1522 1521 1521 1521 1522 1521 1521 1521 1520 1520 1519 1519 1519 1518 1518 1517 1517 1516 1516 1516 1515 1515 1515 1515 1515 1516 1516 1516 1516 1517
1521 1521 1521 1520 1521 1520 1520 1520 1520 1520 1520 1520 1521 1521 1522 1522 1522 1522 1522 1522 1521 1521 1521 1520 1520 1519 1519 1518 1517 1517 1516 1516 1516 1515 1515 1515 1515 1515 1515 1515 1515 1516 1516
1521 1520 1520 1520 1520 1520 1520 1520 1520 1520 1520 1520 1521 1521 1521 1521 1522 1521 1521 1522 1522 1522 1521 1521 1520 1519 1519 1519 1518 1517 1517 1516 1516 1515 1515 1514 1514 1514 1514 1514 1514 1515 1515
1520 1520 1519 1519 1519 1519 1519 1519 1519 1519 1520 1520 1520 1520 1520 1521 1521 1521 1521 1521 1521 1522 1521 1521 1520 1520 1519 1519 1518 1517 1517 1516 1516 1515 1515 1514 1514 1513 1514 1513 1513 1513 1513
1519 1519 1519 1519 1518 1518 1519 1519 1519 1519 1519 1519 1519 1520 1520 1520 1520 1520 1520 1520 1521 1521 1521 1521 1521 1520 1519 1519 1517 1517 1516 1515 1515 1515 1514 1514 1513 1513 1513 1512 1512 1512 1512
1518 1518 1517 1517 1517 1517 1518 1518 1518 1518 1518 1518 1518 1519 1519 1519 1519 1519 1520 1520 1520 1520 1520 1520 1520 1520 1519 1518 1517 1516 1515 1515 1514 1514 1513 1513 1513 1512 1512 1512 1511 1511 1511
1516 1516 1516 1516 1516 1516 1516 1517 1517 1517 1517 1517 1517 1518 1518 1518 1518 1519 1519 1520 1520 1519 1519 1519 1519 1519 1519 1518 1517 1515 1515 1514 1514 1513 1512 1512 1512 1511 1511 1511 1510 1510 1510
1515 1515 1515 1515 1515 1515 1516 1516 1516 1516 1516 1516 1517 1517 1517 1517 1518 1518 1518 1519 1519 1519 1518 1518 1518 1518 1518 1517 1516 1515 1514 1514 1513 1512 1511 1511 1511 1510 1510 1510 1509 1509 1509
1513 1514 1514 1514 1514 1514 1514 1515 1515 1515 1515 1515 1516 1516 1516 1517 1517 1517 1517 1517 1518 1518 1517 1517 1517 1517 1516 1516 1515 1514 1513 1512 1512 1511 1511 1510 1509 1509 1509 1508 1508 1508 1507
1512 1512 1512 1512 1513 1513 1513 1513 1513 1514 1514 1514 1515 1515 1515 1515 1515 1515 1516 1516 1516 1516 1516 1515 1515 1515 1515 1514 1513 1513 1512 1511 1511 1510 1509 1509 1508 1508 1507 1507 1507 1506 1506
1510 1510 1510 1511 1511 1511 1511 1512 1512 1512 1512 1513 1513 1513 1513 1513 1513 1513 1514 1514 1514 1514 1514 1514 1513 1513 1513 1513 1512 1511 1511 1510 1510 1509 1508 1507 1507 1506 1506 1505 1505 1505 1505
1509 1509 1509 1509 1509 1509 1509 1510 1510 1510 1510 1511 1511 1511 1511 1511 1511 1511 1511 1511 1512 1512 1512 1512 1511 1511 1511 1511 1510 1509 1508 1508 1507 1507 1506 1506 1505 1504 1504 1504 1503 1503 1503
1507 1507 1507 1507 1507 1507 1507 1508 1508 1508 1508 1508 1509 1509 1509 1509 1509 1509 1509 1509 1509 1509 1509 1509 1509 1508 1508 1508 1507 1507 1506 1506 1505 1505 1504 1503 1503 1502 1502 1501 1501 1501 1500
1504 1504 1504 1504 1505 1505 1505 1505 1506 1506 1506 1506 1506 1506 1506 1506 1506 1506 1506 1506 1507 1506 1506 1506 1506 1506 1505 1505 1505 1505 1504 1503 1502 1503 1502 1501 1500 1499 1499 1499 1499 1498 1498
1502 1502 1502 1502 1502 1502 1503 1503 1503 1503 1503 1503 1503 1503 1503 1504 1503 1503 1503 1503 1503 1503 1504 1504 1503 1502 1502 1502 1502 1502 1501 1500 1500 1500 1499 1497 1497 1496 1496 1496 1496 1496 1496
1499 1499 1499 1499 1499 1499 1499 1500 1500 1500 1500 1500 1500 1500 1500 1500 1500 1500 1500 1500 1500 1500 1500 1500 1500 1499 1499 1499 1499 1499 1498 1497 1497 1497 1497 1495 1494 1493 1493 1493 1493 1493 1493
1496 1495 1495 1495 1495 1495 1496 1496 1496 1496 1496 1496 1497 1497 1497 1497 1498 1497 1497 1496 1496 1496 1496 1496 1496 1496 1496 1496 1496 1495 1494 1494 1492 1492 1493 1492 1491 1490 1490 1489 1490 1490 1490
1493 1492 1492 1492 1492 1492 1492 1493 1493 1493 1492 1493 1493 1494 1494 1494 1494 1494 1493 1493 1492 1492 1492 1491 1491 1491 1491 1491 1491 1491 1490 1490 1489 1488 1489 1489 1488 1487 1486 1486 1486 1486 1486